Hamilton Rbg, Ontario

2:10 AM EST on December 08, 2016 (GMT -0500)
Hamilton

Weather History for CXHM - October, 2013

Change the Weather History Date:

Sunday, October 20, 2013

  Actual Average Record
Temperature  
Mean Temperature 46 °F -  
Max Temperature 57 °F - - ()
Min Temperature 35 °F - - ()
Degree Days  
Heating Degree Days 19    
Moisture  
Dew Point 38 °F    
Average Humidity 78    
Maximum Humidity 97    
Minimum Humidity 33    
Precipitation  
Precipitation 0.00 in - - ()
Sea Level Pressure  
Sea Level Pressure 29.86 in    
Wind  
Wind Speed 3 mph ()    
Max Wind Speed 9 mph    
Max Gust Speed -    
T = Trace of Precipitation, MM = Missing Value Source: Averaged Metar Reports

Daily Weather History Graph

Daily Weather History Graph

Search for Another Location

Airport or City:

Trip Planner

Search our weather history database for the weather conditions in past years. The results will help you decide how hot, cold, wet, or windy it might be!

Date:

Astronomy

Oct. 20, 2013 Rise Set
Actual Time 7:39 AM EDT 6:28 PM EDT
Civil Twilight 7:10 AM EDT 6:57 PM EDT
Nautical Twilight 6:37 AM EDT 7:30 PM EDT
Astronomical Twilight 6:04 AM EDT 8:03 PM EDT
Moon 7:32 PM EDT (10/20) 9:18 AM EDT (10/20)
Length of Visible Light 11h 46m
Length of Day
10h 48m
Full, 97% of the Moon is Illuminated
Oct 20
Full
Oct 26
Last Quarter
Nov 3
New
Nov 10
First Quarter
Nov 17
Full

Hourly Weather History & Observations

Time (EDT) Temp. Windchill Dew Point Humidity Pressure Visibility Wind Dir Wind Speed Gust Speed Precip Events Conditions
12:00 AM 43.2 °F 39.7 °F 38.5 °F 84% 29.76 in - WSW 5.8 mph - N/A   Unknown
1:00 AM 41.5 °F 38.6 °F 37.9 °F 87% 29.77 in - WSW 4.6 mph - N/A   Unknown
2:00 AM 40 °F - 38 °F 89% 29.78 in - WSW 3.5 mph - -  
2:00 AM 40.5 °F 38.4 °F 37.9 °F 91% 29.78 in - WSW 3.5 mph - N/A   Unknown
3:00 AM 39.2 °F - 37.4 °F 93% 29.79 in - SW 2.3 mph - N/A   Unknown
4:00 AM 38.7 °F 36.3 °F 37.0 °F 94% 29.80 in - West 3.5 mph - N/A   Unknown
5:00 AM 38.5 °F 36.1 °F 36.9 °F 94% 29.80 in - WSW 3.5 mph - N/A   Unknown
6:00 AM 36.9 °F - 35.1 °F 93% 29.81 in - SSW 1.2 mph - N/A   Unknown
7:00 AM 36.5 °F - 35.4 °F 96% 29.83 in - SW 1.2 mph - N/A   Unknown
8:00 AM 36 °F - 35 °F 97% 29.85 in - West 2.3 mph - -  
8:00 AM 36.3 °F - 35.4 °F 97% 29.85 in - West 2.3 mph - N/A   Unknown
9:00 AM 41.0 °F - 37.8 °F 88% 29.87 in - WSW 2.3 mph - N/A   Unknown
10:00 AM 45.1 °F 43.7 °F 39.0 °F 79% 29.88 in - West 3.5 mph - N/A   Unknown
11:00 AM 49.5 °F - 40.3 °F 71% 29.89 in - WSW 4.6 mph - N/A   Unknown
12:00 PM 51.6 °F - 42.1 °F 70% 29.88 in - West 5.8 mph - N/A   Unknown
1:00 PM 54.0 °F - 41.2 °F 62% 29.88 in - West 5.8 mph - N/A   Unknown
2:00 PM 56 °F - 35 °F 33% 29.87 in - West 9.2 mph - -  
2:00 PM 56.3 °F - 34.9 °F 45% 29.87 in - West 9.2 mph - N/A   Unknown
3:00 PM 55.2 °F - 34.7 °F 46% 29.87 in - West 6.9 mph - N/A   Unknown
4:00 PM 55.6 °F - 35.4 °F 47% 29.88 in - West 8.1 mph - N/A   Unknown
5:00 PM 53.8 °F - 35.8 °F 51% 29.90 in - West 4.6 mph - N/A   Unknown
6:00 PM 51.4 °F - 38.3 °F 61% 29.91 in - SW 1.2 mph - N/A   Unknown
7:00 PM 46.9 °F - 40.1 °F 77% 29.92 in - Calm Calm - N/A   Unknown
8:00 PM 43 °F - 38 °F 78% 29.94 in - Calm Calm - -  
8:00 PM 43.3 °F - 38.5 °F 83% 29.94 in - Calm Calm - N/A   Unknown
9:00 PM 40.8 °F - 37.6 °F 88% 29.94 in - Calm Calm - N/A   Unknown
10:00 PM 40.6 °F - 38.7 °F 93% 29.93 in - WSW 1.2 mph - N/A   Unknown
11:00 PM 42.8 °F - 40.8 °F 93% 29.92 in - Calm Calm - N/A   Unknown